Showing default

COSMOS 1375, 13259

Orbit data source: Space-Track

COSMOS 1375, 13259 is a payload satellite owned by PKO (CIS) in LEO that was launched on Sun, 06 Jun 1982 UTC via a KOSMOS 11K65M launch vehicle from the Plesetsk Missile And Space Complex (PKMTR). Payload-class satellites include a variety of spacecraft equipped with specific instruments for various scientific and technological missions. These include communications satellites like Starlink; space stations such as the ISS; scientific satellites like the Hubble; Earth observation satellites from companies like Planet Labs, Umbra, and HawkEye 360; GPS; miniature CubeSats for education and research; and military/defense satellites.

Loading next visibility...
Identifier
13259, 1982-055A
Orbit
LEO
Country
Flag of CISCIS
Related business
Manufacturer
Yuzhnoe
Mission
Spacecraft
Bus & Motor
ROMB, Unknown motor
Mass
1,045 kg wet, 925 kg dry
Launch date (UTC)
1982-06-06 (44 years ago)
Launch vehicle
KOSMOS 11K65M
Launch site
Plesetsk Missile And Space Complex (PKMTR)
Object type
Payload
Rocket body
Debris
Shape & HBR
Unknown
Radar Cross Section
Large (>1 m²)

Expand to show TLE details & history
Last TLE update: 2 days ago

TLE from 2 days ago
0 COSMOS 1375
1 13259U 82055A   26171.31176683  .00000244  00000-0  28853-3 0  9991
2 13259  65.8322  36.7043 0021229 196.2403 163.7987 13.84950203214511
Epoch: 2026-06-20T07:28Z
TLE epoch observation values (Epoch: 2026-06-20T07:28:56.654Z)
Latitude
0.00001°
Longitude
15.94004°
Altitude
963.312 km
Speed
7.363 km/s
True Right ascension
02h 26m 49s
True Declination
0° 00' 00"
Sunlit
Object was in daylight at epoch
Visualization orbit readout
Latitude
Unknown
Longitude
Unknown
Altitude
Unknown
Speed
Unknown
Apparent Right ascension
Unknown
Apparent Declination
Unknown
Sunlit
N/A
Visualization observer readout
Local Sidereal Time
00:39:49
Azimuth
Unknown
Elevation
Unknown
Doppler factor
Unknown
Orbital elements
Apogee altitude
960.437 km
Perigee altitude
929.345 km
Semi-major axis
7,323.028 km
Eccentricity
0.00212
Inclination
65.8322°
RAAN
36.7043°
Arg. of periapsis
196.2403°
True anomaly
163.8664°
Mean anomaly
163.7987°
Eccentric anomaly
163.83257°
Mean motion
3.46344 °/min
Orbital period
103.94 mins
BSTAR
0.00028853
Loading maneuver chart data...
Computing Atmospheric mass density...
Loading historical data...
Loading historical data...
Loading historical data...
Loading historical data...
Loading historical data...
Loading historical data...
Loading historical data...

Documentation

Showing up to 5 results
|